PPIZ

Details ICAO PPIZ (PIZ)
Name POINT LAY LRRS
Region USA (Alaska)
Timezone America/Nome (UTC-8.0)
Plans Departing 5
Arriving 3
Stats Elevation 25 ft / 8 m (AMSL)
Location 69.732091° -163.011126°
Runways 1
Magnetic Variation 11.245° E
Sunrise Unknown / Unknown
Sunset Unknown / Unknown
Advertisement - Login to hide

Runways

ID Width Length Bearing (true) Bearing (mag) Surface Threshold Offset Overrun Length
05 79 ft / 24 m 4,504 ft / 1,373 m 68.62° 57.37° Gravel 0 ft / 0 m 0 ft / 0 m
23 79 ft / 24 m 4,504 ft / 1,373 m 248.65° 237.40° Gravel 0 ft / 0 m 0 ft / 0 m

Map

Weather


0- 5 10 15 20 25 30 35+ Temperature / ° C

Clouds and Precipitation
Forecast for 2018-05-25 00:00 UTC. Updated an hour ago

Ground ~20,000 ft ~40,000 ft Winds

METAR

PPIZ 242356Z AUTO 05012KT 10SM OVC005 01/M01 A2981 RMK AO2 SLP098 T00111011 10011 20000 51010 FZRANO TSNO

TAF

Not found

Frequencies

Recorded 135.65 MHz ASOS
Unicom 126.20 MHz UNICOM
Unicom 122.40 MHz CTAF
Warning: Do not use this data for real-world aviation or navigation. No guarantee of current accuracy is given.